This is the latest recevied weather packets stored in our database for station/object K5SVV. If no packets are shown the sender has not sent any weather packets the latest 10 day(s).
| Time | Temp. | Humidity | Pressure | Rain* | Wind** | Luminosity | Snow |
|---|---|---|---|---|---|---|---|
| 1777584409 | 15° C | 98% | 1012.9 hPa | 0 mm | - | 41 W/m² | - |
| 1777584105 | 15° C | 98% | 1012.9 hPa | 1.78 mm | - | 39 W/m² | - |
| 1777583804 | 15° C | 98% | 1012.6 hPa | 1.78 mm | - | 35 W/m² | - |
| 1777583499 | 15° C | 98% | 1012.2 hPa | 0 mm | - | 39 W/m² | - |
| 1777583194 | 15° C | 99% | 1012.1 hPa | 0 mm | - | 29 W/m² | - |
| 1777582889 | 15° C | 99% | 1012.3 hPa | 0 mm | - | 28 W/m² | - |
| 1777582587 | 15° C | 99% | 1012.5 hPa | 0 mm | - | 25 W/m² | - |
| 1777582282 | 15.56° C | 99% | 1012.6 hPa | 0 mm | - | 24 W/m² | - |
| 1777581980 | 15.56° C | 99% | 1012.5 hPa | 0 mm | - | 23 W/m² | - |
| 1777581675 | 15.56° C | 99% | 1012.7 hPa | 0 mm | - | 23 W/m² | - |
| 1777581370 | 15.56° C | 99% | 1012.6 hPa | 0 mm | - | 23 W/m² | - |
| 1777581064 | 15.56° C | 99% | 1012.6 hPa | 0 mm | - | 29 W/m² | - |
| 1777580763 | 15.56° C | 99% | 1012.6 hPa | 0 mm | - | 33 W/m² | - |
| 1777580459 | 15.56° C | 99% | 1012.2 hPa | 0 mm | - | 32 W/m² | - |
| 1777580154 | 15.56° C | 99% | 1012.2 hPa | 0 mm | - | 54 W/m² | - |
| 1777579851 | 15.56° C | 99% | 1012.5 hPa | 0 mm | - | 46 W/m² | - |
| 1777579550 | 16.11° C | 99% | 1012.8 hPa | 0 mm | - | 39 W/m² | - |
| 1777579244 | 15.56° C | 99% | 1013.2 hPa | 0 mm | - | 28 W/m² | - |
| 1777578940 | 16.11° C | 99% | 1012.7 hPa | 0 mm | - | 35 W/m² | - |
| 1777578635 | 16.11° C | 99% | 1013 hPa | 0 mm | - | 44 W/m² | - |
| 1777578334 | 15.56° C | 99% | 1012.8 hPa | 0 mm | - | 55 W/m² | - |
| 1777578031 | 15.56° C | 99% | 1012.7 hPa | 0 mm | - | 35 W/m² | - |
| 1777577727 | 16.11° C | 99% | 1012.5 hPa | 0 mm | - | 33 W/m² | - |
| 1777577424 | 16.11° C | 99% | 1012.5 hPa | 0 mm | - | 44 W/m² | - |
| 1777577121 | 16.11° C | 99% | 1012.2 hPa | 0 mm | - | 65 W/m² | - |
* Rain latest hour (hover to see other rain measurements)
** Current wind speed in m/s (hover to see current wind gust speed)